[[{"header":{"parameterUnit":"m.s-1","parameterCategory":1,"la1":30.2991,"la2":30.254,"lo1":-89.0895,"lo2":-89.0444,"dy":0.0017,"dx":0.0017,"nx":28,"ny":28,"refTime":"2024-03-28T03:00:00:Z","depth":0,"parameterNumber":2,"parameterNumberName":"U-component_of_WINDS"},"data":[0,0,0,0,0,0,0,0,0,0,0,0,0,0,0,0,0,0,0,0,0,0,0,0,0,0,0,0,0,0,0,0,0,0,0,0,0,0,0,0,0,0,0,0,0,0,0,0,0,0,0,0,0,0,0,0,0,0,-0.1579,-0.1579,0,-0.1601,-0.1601,-0.1602,-0.1625,-0.1625,-0.1625,-0.1626,-0.1648,-0.1649,-0.1649,0,0,0,0,0,0,0,0,0,0,0,0,0,-0.1556,-0.1556,-0.1579,-0.1579,-0.158,-0.1601,-0.1602,-0.1602,-0.1625,-0.1625,-0.1625,-0.1626,-0.1648,-0.1649,-0.1649,0,0,0,0,0,0,0,0,0,0,0,0,0,-0.1571,-0.1556,-0.1579,-0.1594,-0.1595,-0.1601,-0.1602,-0.1602,-0.1624,-0.1625,-0.1625,-0.1626,-0.1648,-0.1649,-0.1649,-0.1643,0,0,-0.1651,-0.1651,0,0,0,0,0,0,0,0,-0.157,-0.1572,-0.1591,-0.1593,-0.1594,-0.1611,-0.1602,-0.1616,-0.1624,-0.1613,-0.1626,-0.1626,-0.1635,-0.1637,-0.164,-0.1644,-0.1645,-0.1651,-0.1651,-0.1651,-0.1651,0,0,0,0,0,0,0,-0.1569,-0.1571,-0.1588,-0.1591,-0.1593,-0.1599,-0.1601,-0.1604,-0.1621,-0.1614,-0.1616,-0.1618,-0.1636,-0.164,-0.1641,-0.1645,-0.1651,-0.1651,-0.1651,-0.1651,-0.1643,-0.1643,0,0,0,0,0,0,-0.1566,-0.157,-0.1587,-0.1589,-0.1583,-0.1599,-0.1602,-0.1605,-0.1622,-0.1625,-0.1618,-0.1619,-0.1639,-0.164,-0.1642,-0.1635,-0.1651,-0.1651,-0.1652,-0.1644,-0.1643,-0.1643,0,0,0,0,0,0,-0.1565,-0.1567,-0.1586,-0.158,-0.1583,-0.1599,-0.1602,-0.1605,-0.1608,-0.1624,-0.1627,-0.1618,-0.1639,-0.1641,-0.1642,-0.1636,-0.1652,-0.1652,-0.1644,-0.1644,-0.1643,-0.1621,0,0,0,0,0,0,-0.1564,-0.1567,-0.1565,-0.1579,-0.1583,-0.1586,-0.1602,-0.1605,-0.1609,-0.1611,-0.1625,-0.1628,-0.164,-0.1641,-0.1642,-0.1637,-0.1653,-0.1645,-0.1644,-0.1643,-0.1622,-0.162,-0.1617,0,0,0,0,0,-0.1563,-0.1558,-0.1564,-0.1566,-0.1581,-0.1586,-0.1588,-0.1601,-0.1609,-0.1606,-0.1616,-0.1628,-0.1636,-0.1641,-0.1643,-0.1637,-0.1646,-0.1644,-0.1643,-0.1624,-0.162,-0.1617,0,0,0,0,0,0,-0.1542,-0.156,-0.1568,-0.1567,-0.1574,-0.159,-0.1588,-0.1597,-0.1603,-0.1605,-0.1621,-0.1624,-0.1623,-0.163,-0.1635,-0.1631,-0.1642,-0.1642,-0.1627,-0.1624,-0.1621,-0.162,-0.1653,0,0,0,0,0,-0.1537,-0.154,-0.1556,-0.1553,-0.1557,-0.1571,-0.1574,-0.1584,-0.1593,-0.1596,-0.1606,-0.1615,-0.1619,-0.1622,-0.1627,-0.1623,-0.1627,-0.162,-0.1618,-0.1616,-0.1615,-0.1613,-0.161,-0.1639,-0.1639,-0.1639,0,0,-0.1527,-0.1537,-0.1538,-0.1549,-0.1556,-0.1559,-0.1574,-0.1576,-0.1578,-0.1597,-0.1598,-0.1606,-0.1616,-0.1614,-0.1614,-0.162,-0.1607,-0.1614,-0.1612,-0.1613,-0.1611,-0.1608,-0.1606,-0.1638,-0.1638,-0.1639,0,0,-0.1511,-0.1519,-0.1517,-0.1524,-0.1535,-0.1544,-0.1544,-0.1557,-0.1563,-0.1565,-0.1578,-0.158,-0.1588,-0.1595,-0.1599,-0.1583,-0.1594,-0.1584,-0.1571,-0.1569,-0.1567,-0.1565,-0.1559,-0.1557,-0.1583,-0.1583,-0.1583,0,-0.1497,-0.1501,-0.1515,-0.1516,-0.152,-0.1537,-0.1535,-0.1541,-0.1553,-0.1555,-0.1562,-0.1571,-0.1579,-0.1579,-0.1575,-0.1578,-0.1578,-0.1583,-0.1566,-0.1564,-0.1563,-0.1557,-0.1555,-0.1582,-0.1582,-0.1582,-0.1583,0,-0.1484,-0.1487,-0.1484,-0.1495,-0.1498,-0.1498,-0.1512,-0.1514,-0.1523,-0.1531,-0.1532,-0.1542,-0.1549,-0.155,-0.1559,-0.1551,-0.1554,-0.1563,-0.1575,-0.1558,-0.1553,-0.1551,-0.1581,-0.1581,-0.1581,-0.1582,0,0,-0.1455,-0.1473,-0.1471,-0.1476,-0.1489,-0.1491,-0.1491,-0.1498,-0.1499,-0.1506,-0.1506,-0.1512,-0.152,-0.1525,-0.1534,-0.1532,-0.1519,-0.1541,-0.1542,-0.1537,-0.151,-0.1503,-0.1501,-0.1525,-0.1525,-0.1525,-0.1509,0,-0.144,-0.1442,-0.1454,-0.1452,-0.1454,-0.1469,-0.1469,-0.1476,-0.1484,-0.1487,-0.1496,-0.1499,-0.151,-0.1513,-0.1511,-0.1521,-0.1514,-0.1522,-0.1526,-0.1526,-0.1523,-0.1498,-0.1491,-0.1476,-0.1507,-0.1507,-0.1507,0,-0.1424,-0.143,-0.1427,-0.1439,-0.1441,-0.144,-0.1447,-0.145,-0.1458,-0.1464,-0.1469,-0.1479,-0.148,-0.149,-0.1491,-0.1496,-0.1498,-0.1503,-0.1503,-0.1504,-0.1515,-0.1498,-0.1471,-0.1469,-0.1504,-0.1504,-0.1504,0,-0.1403,-0.141,-0.141,-0.1413,-0.1427,-0.1426,-0.1432,-0.1441,-0.1444,-0.1449,-0.1451,-0.1457,-0.146,-0.1464,-0.1475,-0.1482,-0.1474,-0.1486,-0.1479,-0.1479,-0.1477,-0.1477,-0.145,-0.1478,-0.1478,-0.1478,-0.1478,0,-0.1385,-0.1383,-0.14,-0.14,-0.1398,-0.1411,-0.1409,-0.1416,-0.1423,-0.1425,-0.1438,-0.1438,-0.1454,-0.1456,-0.1465,-0.1464,-0.1465,-0.1469,-0.1472,-0.1468,-0.1468,-0.147,-0.1471,-0.1478,-0.1478,-0.1478,-0.1478,0,-0.1362,-0.1373,-0.1373,-0.1386,-0.1389,-0.1387,-0.1397,-0.1397,-0.1406,-0.1407,-0.1408,-0.1421,-0.1424,-0.1436,-0.1442,-0.1448,-0.1444,-0.1449,-0.1441,-0.1442,-0.1435,-0.1435,-0.1408,-0.1405,-0.1435,-0.1435,-0.1435,0,-0.135,-0.1348,-0.1361,-0.1362,-0.1367,-0.137,-0.1372,-0.1385,-0.1388,-0.1396,-0.1395,-0.1399,-0.1404,-0.1408,-0.1418,-0.1422,-0.1427,-0.1417,-0.1428,-0.1424,-0.1427,-0.1427,-0.1426,-0.1415,-0.1415,-0.1414,-0.1414,0,-0.1327,-0.1333,-0.1336,-0.1341,-0.1344,-0.1349,-0.1355,-0.1355,-0.1369,-0.1371,-0.1375,-0.1378,-0.1384,-0.1387,-0.1393,-0.1399,-0.1409,-0.1411,-0.1409,-0.1405,-0.1401,-0.1403,-0.1435,-0.1411,-0.1412,-0.1412,-0.1412,-0.1412,-0.1309,-0.1308,-0.1317,-0.132,-0.1325,-0.133,-0.133,-0.1338,-0.1341,-0.1347,-0.1354,-0.1356,-0.1364,-0.1373,-0.1378,-0.1379,-0.1385,-0.1383,-0.1382,-0.1381,-0.1379,-0.1401,-0.138,-0.138,-0.1381,-0.1381,-0.1381,0,-0.1287,-0.1293,-0.1296,-0.1303,-0.1305,-0.1314,-0.132,-0.1322,-0.1323,-0.1329,-0.1333,-0.1336,-0.134,-0.1349,-0.1354,-0.1353,-0.1357,-0.1354,-0.1354,-0.1355,-0.1375,-0.1375,-0.135,-0.135,-0.135,-0.135,-0.135,-0.135,-0.1276,-0.1275,-0.1281,-0.1283,-0.1289,-0.1291,-0.1293,-0.1298,-0.1302,-0.1305,-0.1308,-0.1314,-0.1322,-0.1327,-0.133,-0.1333,-0.1334,-0.1328,-0.1332,-0.1351,-0.1354,-0.1356,-0.1357,-0.1328,-0.1328,-0.1312,-0.1312,-0.1312]},{"header":{"parameterUnit":"m.s-1","parameterCategory":1,"la1":30.2991,"la2":30.254,"lo1":-89.0895,"lo2":-89.0444,"dy":0.0017,"dx":0.0017,"nx":28,"ny":28,"refTime":"2024-03-28T03:00:00:Z","depth":0,"parameterNumber":3,"parameterNumberName":"V-component_of_WINDS"},"data":[0,0,0,0,0,0,0,0,0,0,0,0,0,0,0,0,0,0,0,0,0,0,0,0,0,0,0,0,0,0,0,0,0,0,0,0,0,0,0,0,0,0,0,0,0,0,0,0,0,0,0,0,0,0,0,0,0,0,-6.4788,-6.4789,0,-6.4903,-6.4905,-6.4906,-6.488,-6.4878,-6.4875,-6.4873,-6.4985,-6.499,-6.4995,0,0,0,0,0,0,0,0,0,0,0,0,0,-6.454,-6.4544,-6.4788,-6.4789,-6.4791,-6.4903,-6.4905,-6.4906,-6.488,-6.4878,-6.4875,-6.4872,-6.4983,-6.4989,-6.4995,0,0,0,0,0,0,0,0,0,0,0,0,0,-6.465,-6.4546,-6.4787,-6.4791,-6.4793,-6.4903,-6.4905,-6.4907,-6.4881,-6.4877,-6.4874,-6.4871,-6.4981,-6.4989,-6.4996,-6.5107,0,0,-6.5019,-6.5022,0,0,0,0,0,0,0,0,-6.4644,-6.4659,-6.4789,-6.4791,-6.4793,-6.4874,-6.4858,-6.4974,-6.4882,-6.4847,-6.4873,-6.487,-6.495,-6.496,-6.4989,-6.5112,-6.5117,-6.502,-6.5024,-6.5027,-6.5029,0,0,0,0,0,0,0,-6.4636,-6.4654,-6.4833,-6.4791,-6.4794,-6.4786,-6.4798,-6.488,-6.4915,-6.485,-6.4848,-6.4863,-6.4951,-6.4982,-6.4991,-6.5119,-6.5019,-6.5026,-6.5031,-6.5034,-6.5342,-6.5345,0,0,0,0,0,0,-6.4628,-6.4648,-6.483,-6.4837,-6.4709,-6.4793,-6.4806,-6.4851,-6.4914,-6.4921,-6.4865,-6.4861,-6.497,-6.4982,-6.4995,-6.5131,-6.5027,-6.5034,-6.5039,-6.5338,-6.5343,-6.5347,0,0,0,0,0,0,-6.4623,-6.4644,-6.4825,-6.4742,-6.4765,-6.4801,-6.4851,-6.4855,-6.4886,-6.4926,-6.4932,-6.4891,-6.4968,-6.4984,-6.5081,-6.5134,-6.5038,-6.5044,-6.5334,-6.5339,-6.5345,-6.5403,0,0,0,0,0,0,-6.4616,-6.4643,-6.4686,-6.4743,-6.4769,-6.491,-6.4854,-6.486,-6.49,-6.4895,-6.4952,-6.4958,-6.4967,-6.507,-6.5088,-6.5143,-6.505,-6.5329,-6.5336,-6.5343,-6.5396,-6.541,-6.5421,0,0,0,0,0,-6.4607,-6.4696,-6.4689,-6.4711,-6.4825,-6.4913,-6.4928,-6.4939,-6.4904,-6.4948,-6.4974,-6.4956,-6.5126,-6.508,-6.51,-6.5158,-6.5326,-6.5334,-6.5342,-6.5391,-6.5407,-6.5421,0,0,0,0,0,0,-6.4641,-6.4704,-6.4696,-6.4807,-6.4856,-6.4909,-6.4964,-6.4955,-6.5013,-6.5006,-6.5015,-6.5028,-6.5126,-6.5151,-6.5099,-6.527,-6.522,-6.5233,-6.525,-6.5266,-6.5278,-6.527,-6.5057,0,0,0,0,0,-6.4662,-6.4731,-6.4781,-6.4874,-6.4899,-6.4928,-6.4966,-6.4971,-6.5021,-6.504,-6.5073,-6.5121,-6.5185,-6.5227,-6.5288,-6.54,-6.5412,-6.545,-6.5462,-6.5472,-6.5483,-6.5546,-6.5564,-6.5374,-6.5374,-6.5374,0,0,-6.4705,-6.4748,-6.479,-6.4882,-6.492,-6.499,-6.4945,-6.502,-6.5072,-6.5051,-6.5145,-6.5171,-6.5224,-6.533,-6.5378,-6.5354,-6.5539,-6.5483,-6.5491,-6.5496,-6.5557,-6.5575,-6.5591,-6.538,-6.5378,-6.5378,0,0,-6.482,-6.4859,-6.4942,-6.4982,-6.5042,-6.5061,-6.5081,-6.5136,-6.5154,-6.5249,-6.5236,-6.5296,-6.5406,-6.5445,-6.548,-6.5612,-6.5598,-6.5631,-6.5697,-6.5758,-6.5773,-6.5786,-6.5835,-6.5852,-6.5642,-6.5642,-6.5642,0,-6.4865,-6.4972,-6.4984,-6.5063,-6.5103,-6.5091,-6.5175,-6.5212,-6.5288,-6.5316,-6.5288,-6.5428,-6.5463,-6.5578,-6.5611,-6.5639,-6.5662,-6.5625,-6.577,-6.5784,-6.5796,-6.5842,-6.586,-6.5646,-6.5646,-6.5645,-6.5645,0,-6.5025,-6.51,-6.5159,-6.5236,-6.5284,-6.5364,-6.5388,-6.5434,-6.5435,-6.5456,-6.5554,-6.5595,-6.5666,-6.5693,-6.5693,-6.5809,-6.5793,-6.5768,-6.5718,-6.5818,-6.5862,-6.5879,-6.5652,-6.565,-6.5649,-6.5648,0,0,-6.5163,-6.5249,-6.5271,-6.5307,-6.5373,-6.543,-6.5509,-6.5581,-6.5621,-6.5674,-6.5741,-6.5835,-6.5814,-6.5853,-6.5857,-6.5911,-6.6015,-6.5879,-6.5881,-6.5904,-6.6147,-6.6166,-6.6186,-6.6006,-6.6009,-6.6012,-6.6143,0,-6.5285,-6.5429,-6.5443,-6.5571,-6.564,-6.5631,-6.57,-6.5748,-6.577,-6.5831,-6.5855,-6.5923,-6.5888,-6.5912,-6.5965,-6.5991,-6.6064,-6.5982,-6.6068,-6.6071,-6.6056,-6.6209,-6.6229,-6.6351,-6.616,-6.6163,-6.6165,0,-6.5446,-6.5507,-6.5643,-6.5702,-6.5732,-6.5794,-6.5862,-6.5921,-6.5974,-6.5987,-6.6033,-6.6031,-6.6112,-6.6059,-6.6171,-6.6115,-6.6151,-6.617,-6.6175,-6.6183,-6.6124,-6.6223,-6.6389,-6.6408,-6.6191,-6.6189,-6.6187,0,-6.5535,-6.5651,-6.5748,-6.5779,-6.585,-6.5894,-6.5925,-6.5976,-6.6019,-6.6077,-6.6106,-6.6172,-6.6208,-6.6259,-6.6275,-6.6235,-6.6387,-6.6335,-6.6399,-6.6399,-6.6432,-6.6429,-6.6607,-6.6453,-6.6453,-6.6453,-6.6452,0,-6.567,-6.5753,-6.579,-6.5849,-6.5943,-6.5958,-6.605,-6.6078,-6.6124,-6.6188,-6.6183,-6.6242,-6.6259,-6.6322,-6.6334,-6.6426,-6.6442,-6.6454,-6.6457,-6.6455,-6.6454,-6.6479,-6.6472,-6.6458,-6.6457,-6.6456,-6.6455,0,-6.5785,-6.5813,-6.5918,-6.5978,-6.5995,-6.6061,-6.6111,-6.6168,-6.6191,-6.6272,-6.6292,-6.6327,-6.6401,-6.6422,-6.6509,-6.6517,-6.6626,-6.6619,-6.6609,-6.6609,-6.6673,-6.6667,-6.6873,-6.6902,-6.6728,-6.673,-6.6731,0,-6.5869,-6.5934,-6.6002,-6.6047,-6.6081,-6.6151,-6.6196,-6.6214,-6.6261,-6.6328,-6.6377,-6.6451,-6.6511,-6.6629,-6.6661,-6.6728,-6.6724,-6.6792,-6.6734,-6.6731,-6.6727,-6.6723,-6.673,-6.6803,-6.6805,-6.6806,-6.6807,0,-6.6017,-6.6029,-6.6095,-6.6167,-6.6222,-6.6279,-6.6333,-6.6369,-6.6394,-6.6447,-6.6524,-6.6571,-6.6663,-6.6736,-6.6805,-6.6834,-6.6826,-6.6826,-6.6844,-6.6844,-6.6836,-6.6842,-6.664,-6.6821,-6.6819,-6.6818,-6.6818,-6.6817,-6.6121,-6.6179,-6.6237,-6.6311,-6.6355,-6.6407,-6.6465,-6.6496,-6.6561,-6.6639,-6.6645,-6.6729,-6.6782,-6.6874,-6.6908,-6.6973,-6.6953,-6.6979,-6.6986,-6.6993,-6.6999,-6.6825,-6.6985,-6.6985,-6.6984,-6.6984,-6.6984,0,-6.6269,-6.6307,-6.6376,-6.6454,-6.6513,-6.6503,-6.6563,-6.6612,-6.6687,-6.6739,-6.6799,-6.6888,-6.696,-6.6998,-6.7069,-6.7114,-6.7112,-6.7132,-6.7129,-6.7137,-6.7012,-6.699,-6.7133,-6.7133,-6.7133,-6.7133,-6.7133,-6.7133,-6.6354,-6.6452,-6.6471,-6.6591,-6.6627,-6.6712,-6.6748,-6.6795,-6.6837,-6.6938,-6.6999,-6.7025,-6.7071,-6.7146,-6.7211,-6.722,-6.7247,-6.727,-6.7277,-6.716,-6.7145,-6.7131,-6.711,-6.7276,-6.7276,-6.7397,-6.7398,-6.7399]}]]